Showing default

RELAY 2, 737

Orbit data source: Space-Track

RELAY 2, 737 is a payload satellite owned by GSFC (US) that was launched on Tue, 21 Jan 1964 UTC via a THOR DELTA B launch vehicle from the Air Force Eastern Test Range (AFETR). Payload-class satellites include a variety of spacecraft equipped with specific instruments for various scientific and technological missions. These include communications satellites like Starlink; space stations such as the ISS; scientific satellites like the Hubble; Earth observation satellites from companies like Planet Labs, Umbra, and HawkEye 360; GPS; miniature CubeSats for education and research; and military/defense satellites.

Loading next visibility...
Identifier
737, 1964-003A
Orbit
Active
Country
Flag of USUS
Related business
Manufacturer
RCA/East Windsor
Mission
Spacecraft
Bus & Motor
RELAY, Unknown motor
Mass
83 kg wet, 83 kg dry
Launch date (UTC)
1964-01-21 (62 years ago)
Launch vehicle
THOR DELTA B
Launch site
Air Force Eastern Test Range (AFETR)
Object type
Payload
Rocket body
Debris
Shape & HBR
Unknown
Radar Cross Section
Medium (>0.1 m² and <1 m²)

Expand to show TLE details & history
Last TLE update: 1 day ago

TLE from 1 day ago
0 RELAY 2
1 00737U 64003A   25352.99880575 -.00000017  00000-0  00000-0 0  9997
2 00737  46.4415 188.4879 2595075 179.2096 181.3871  7.39535814672767
Epoch: 2025-12-18T23:58Z
TLE epoch observation values (Epoch: 2025-12-18T23:58:16.816Z)
Latitude
-0.00005°
Longitude
101.07152°
Altitude
7,637.494 km
Speed
4.59 km/s
True Right ascension
12h 33m 57s
True Declination
0° 00' 00"
Sunlit
Object was in daylight at epoch
Visualization orbit readout
Latitude
Unknown
Longitude
Unknown
Altitude
Unknown
Speed
Unknown
Apparent Right ascension
Unknown
Apparent Declination
Unknown
Sunlit
N/A
Visualization observer readout
Local Sidereal Time
06:17:21
Azimuth
Unknown
Elevation
Unknown
Doppler factor
Unknown
Orbital elements
Apogee altitude
7,639.231 km
Perigee altitude
1,862.985 km
Semi-major axis
11,129.245 km
Eccentricity
0.25951
Inclination
46.4415°
RAAN
188.4879°
Arg. of periapsis
179.2096°
True anomaly
180.84446°
Mean anomaly
181.3871°
Eccentric anomaly
181.10132°
Mean motion
1.84861 °/min
Orbital period
194.74 mins
BSTAR
0
Loading maneuver chart data...
Computing Atmospheric mass density...
Loading historical data...
Loading historical data...
Loading historical data...
Loading historical data...
Loading historical data...
Loading historical data...
Loading historical data...
Other satellites on launch #3 in the year 1964 (1964-01-21 UTC)

Documentation

Showing up to 5 results
|